This is the latest recevied weather packets stored in our database for station/object KE4EST. If no packets are shown the sender has not sent any weather packets the latest 10 day(s).
| Time | Temp. | Humidity | Pressure | Rain* | Wind** | Luminosity | Snow |
|---|---|---|---|---|---|---|---|
| 1777580090 | 18.33° C | 49% | 1012.8 hPa | 0 mm | - | 301 W/m² | - |
| 1777579787 | 18.33° C | 52% | 1012.7 hPa | 0 mm | - | 290 W/m² | - |
| 1777579485 | 18.33° C | 50% | 1013.1 hPa | 0 mm | - | 283 W/m² | - |
| 1777579180 | 18.33° C | 50% | 1013.2 hPa | 0 mm | - | 349 W/m² | - |
| 1777578875 | 18.33° C | 51% | 1013 hPa | 0 mm | - | 316 W/m² | - |
| 1777578571 | 18.33° C | 50% | 1013.1 hPa | 0 mm | - | 279 W/m² | - |
| 1777578266 | 18.89° C | 50% | 1013 hPa | 0 mm | - | 299 W/m² | - |
| 1777577962 | 18.33° C | 51% | 1012.7 hPa | 0 mm | - | 375 W/m² | - |
| 1777577657 | 18.33° C | 52% | 1012.9 hPa | 0 mm | - | 264 W/m² | - |
| 1777577355 | 18.33° C | 50% | 1012.9 hPa | 0 mm | - | 324 W/m² | - |
| 1777577050 | 18.33° C | 49% | 1012.8 hPa | 0 mm | - | 302 W/m² | - |
| 1777576748 | 18.33° C | 50% | 1012.8 hPa | 0 mm | - | 378 W/m² | - |
| 1777576446 | 18.33° C | 51% | 1012.7 hPa | 0 mm | - | 332 W/m² | - |
| 1777576144 | 18.89° C | 53% | 1012.6 hPa | 0 mm | - | 263 W/m² | - |
| 1777575838 | 18.89° C | 50% | 1012.5 hPa | 0 mm | - | 287 W/m² | - |
| 1777575536 | 18.89° C | 49% | 1012.8 hPa | 0 mm | - | 363 W/m² | - |
| 1777575231 | 19.44° C | 48% | 1012.6 hPa | 0 mm | - | 501 W/m² | - |
| 1777574927 | 19.44° C | 48% | 1012.6 hPa | 0 mm | - | 389 W/m² | - |
| 1777574624 | 19.44° C | 48% | 1012.6 hPa | 0 mm | - | 560 W/m² | - |
| 1777574321 | 19.44° C | 51% | 1012.9 hPa | 0 mm | - | 647 W/m² | - |
| 1777574015 | 20° C | 48% | 1012.7 hPa | 0 mm | - | 715 W/m² | - |
| 1777573710 | 20.56° C | 48% | 1012.8 hPa | 0 mm | - | 698 W/m² | - |
| 1777573407 | 19.44° C | 50% | 1013 hPa | 0 mm | - | 597 W/m² | - |
| 1777573103 | 18.89° C | 52% | 1012.8 hPa | 0 mm | - | 703 W/m² | - |
| 1777572800 | 20° C | 51% | 1012.8 hPa | 0 mm | - | 661 W/m² | - |
* Rain latest hour (hover to see other rain measurements)
** Current wind speed in m/s (hover to see current wind gust speed)